Weather in Bilaspur

India     22°04′42″N   82°08′24″E
temp.,
°C
wind,
m/s
gust,
m/s
humid.,
%
clouds,
%
prec.,
mm/h
press.,
hPa
HPBL,
m
14 may, fri
fri1423:30+33nnw36306 0.0 1002105
02:30+30n373596 0.0 1002198
05:30+30nne124075 0.0 100366
08:30+34e22280 0.0 1005661
11:30+38sw34211 0.0 10042548
14:30+40w4518100 0.0 10004258
17:30+35n452520 0.0 1000168
20:30+35n23250 0.0 100251
15 may, sat
sat1523:30+33s112759 0.0 100212
02:30+31sw223493 0.0 100226
05:30+30sw3441100 0.0 100473
08:30+35wsw343262 0.0 1005938
11:30+40ssw44244 0.0 10042883
14:30+41s541960 0.0 10003624
17:30+36n882797 0.1 1001502
20:30+36e232675 0.3 100345
16 may, sun
sun1623:30+33sw233486 0.6 1004117
02:30+32ssw113786 0.0 100313
05:30+31sw2443100 0.0 100491
08:30+35sw4434100 0.0 1006924
11:30+39ssw43275 0.0 10052125
14:30+41s432131 0.0 10013529
17:30+41s33202 0.1 10003281
20:30+36nw23294 0.2 100382
17 may, mon
mon1723:30+34sw00345 0.2 100311
02:30+33sw49375 0.0 1003317
05:30+32wsw511456 0.0 1004498
08:30+36wsw56372 0.0 10061178
11:30+40wsw43270 0.0 10042229
14:30+42ssw43212 0.0 10013616
17:30+41sw43215 0.0 10003427
20:30+35n563598 0.1 1003331
18 may, tue
tue1823:30+34ne36385 0.1 1003214
02:30+33nne123953 0.0 1002128
05:30+32ssw234110 0.1 100371
08:30+37wsw66315 0.0 10051245
11:30+41w53255 0.0 10032637
14:30+43wsw4320100 0.0 10003711
17:30+42sw5419100 0.0 9993258
20:30+38nnw5827100 0.0 1001325